This is the latest recevied weather packets stored in our database for station/object KE8CZD. If no packets are shown the sender has not sent any weather packets the latest 10 day(s).
| Time | Temp. | Humidity | Pressure | Rain* | Wind** | Luminosity | Snow |
|---|---|---|---|---|---|---|---|
| 1778186564 | 12.22° C | 29% | 1007.9 hPa | 0 mm | - | - | - |
| 1778186204 | 11.67° C | 29% | 1008 hPa | 0 mm | - | - | - |
| 1778185844 | 11.67° C | 29% | 1008.1 hPa | 0 mm | - | - | - |
| 1778185485 | 12.22° C | 30% | 1008.1 hPa | 0 mm | - | - | - |
| 1778185124 | 12.22° C | 29% | 1008.3 hPa | 0 mm | - | - | - |
| 1778184764 | 12.22° C | 30% | 1008.2 hPa | 0 mm | - | - | - |
| 1778184404 | 12.22° C | 30% | 1008.2 hPa | 0 mm | - | - | - |
| 1778184044 | 11.67° C | 30% | 1008.2 hPa | 0 mm | - | - | - |
| 1778183684 | 12.22° C | 29% | 1008.4 hPa | 0 mm | - | - | - |
| 1778183325 | 12.22° C | 29% | 1008.4 hPa | 0 mm | - | - | - |
| 1778182964 | 12.22° C | 29% | 1008.3 hPa | 0 mm | - | - | - |
| 1778182604 | 12.22° C | 29% | 1008.3 hPa | 0 mm | - | - | - |
| 1778182245 | 12.78° C | 29% | 1008.2 hPa | 0 mm | - | - | - |
| 1778181884 | 13.33° C | 28% | 1008 hPa | 0 mm | - | - | - |
| 1778181524 | 13.33° C | 30% | 1008 hPa | 0 mm | - | - | - |
| 1778181204 | 12.78° C | 31% | 1008 hPa | 0 mm | - | - | - |
| 1778181164 | 12.78° C | 31% | 1008 hPa | 0 mm | - | - | - |
| 1778180804 | 12.78° C | 32% | 1008.2 hPa | 0 mm | - | - | - |
| 1778180445 | 12.22° C | 30% | 1008.2 hPa | 0 mm | - | - | - |
| 1778180084 | 11.67° C | 30% | 1008.4 hPa | 0 mm | - | - | - |
| 1778179724 | 11.67° C | 30% | 1008.4 hPa | 0 mm | - | - | - |
| 1778179365 | 11.67° C | 30% | 1008.4 hPa | 0 mm | - | - | - |
| 1778179005 | 11.11° C | 31% | 1008.6 hPa | 0 mm | - | - | - |
| 1778178644 | 11.11° C | 31% | 1008.6 hPa | 0 mm | - | - | - |
| 1778178285 | 11.11° C | 32% | 1008.7 hPa | 0 mm | - | - | - |
* Rain latest hour (hover to see other rain measurements)
** Current wind speed in m/s (hover to see current wind gust speed)